Regional Weather Roundup
Issued by NWS Sioux Falls, SD

Home | Current Version | Previous Version | Graphics & Text | Print | Product List | Glossary Off
Versions: 1 2 3 4 5 6 7 8 9 10 11 12 13 14 15 16 17 18 19 20 21 22 23 24 25 26 27 28 29 30 31 32 33 34 35 36 37 38 39 40 41 42 43 44 45 46 47 48 49 50

000
ASUS43 KFSD 311210
RWRFSD

WEATHER ROUNDUP FOR SE SOUTH DAKOTA/SW MINNESOTA/NW IOWA
NATIONAL WEATHER SERVICE SIOUX FALLS SD
700 AM CDT FRI JUL 31 2015

NOTE: "FAIR" INDICATES FEW OR NO CLOUDS BELOW 12,000 FEET WITH NO
SIGNIFICANT WEATHER AND OR OBSTRUCTIONS TO VISIBILITY.


SDZ038>040-050-052>070-311300-
SOUTHEAST SOUTH DAKOTA

CITY           SKY/WX    TMP DP  RH WIND       PRES   REMARKS
BROOKINGS      CLEAR     55  54  94 CALM      30.18R
CHAMBERLAIN    CLEAR     60  56  87 CALM      30.16R
6HR MIN TEMP:  57; 6HR MAX TEMP:  69;

HURON          CLEAR     59  57  93 CALM      30.16R
6HR MIN TEMP:  58; 6HR MAX TEMP:  70;

MADISON        PTSUNNY   57  57 100 CALM      30.17R
MITCHELL       CLEAR     60  57  89 NW3       30.15R
6HR MIN TEMP:  58; 6HR MAX TEMP:  68;

SIOUX FALLS    MOCLDY    61  59  93 CALM      30.14R
6HR MIN TEMP:  60; 6HR MAX TEMP:  68;

WINNER         FAIR      62  54  74 CALM      30.17R
YANKTON          N/A    N/A N/A N/A MISG        N/A
$$

MNZ071-072-080-081-089-090-097-098-311300-
SOUTHWEST MINNESOTA

CITY           SKY/WX    TMP DP  RH WIND       PRES   REMARKS
FAIRMONT       CLOUDY    66  55  68 NW5       30.13R
JACKSON        PTCLDY    63  59  88 W3        30.15R
LUVERNE        CLEAR     59  55  88 CALM      30.15S
MARSHALL       CLEAR     59  52  77 W5        30.15R
6HR MIN TEMP:  57; 6HR MAX TEMP:  63;

MONTEVIDEO     CLEAR     61  55  82 NW6       30.14S
PIPESTONE      PTCLDY    61  57  88 NE3       30.16R
REDWOOD FALLS  CLEAR     61  56  83 NW7       30.12R
TRACY          CLEAR     63  55  77 W5        30.15R
WINDOM         PTCLDY    64  57  77 CALM      30.14S
WORTHINGTON    CLOUDY    61  54  77 W3        30.16R
$$

IAZ001>003-012>014-020>022-031-032-NEZ013-014-SDZ071-311300-
NORTHWEST IOWA

CITY           SKY/WX    TMP DP  RH WIND       PRES   REMARKS
CHEROKEE       PTCLDY    65  65 100 CALM      30.14S
DENISON        CLEAR     64  63  94 NE3       30.13R
ESTHERVILLE    PTCLDY    63  61  93 W3        30.13R
LE MARS        PTCLDY    64  64 100 CALM      30.15R
ORANGE CITY    CLEAR     66  61  82 CALM      30.15R
SHELDON        PTCLDY    59  59 100 CALM      30.14R
SIOUX CITY     CLEAR     65  61  87 E5        30.14R
6HR MIN TEMP:  65; 6HR MAX TEMP:  72;

SPENCER        PTCLDY    60  57  89 W3        30.14R
6HR MIN TEMP:  60; 6HR MAX TEMP:  66;

STORM LAKE     PTCLDY    66  64  94 NW5       30.15S
$$

ABBREVIATIONS USED IN REMARKS
   TC - TEMPERATURE IN CELSIUS
  WCI - WIND CHILL INDEX
   HX - HEAT INDEX
  VSB - VISIBILITY




USA.gov is the U.S. government's official web portal to all federal, state and local government web resources and services.